CAPE
1380 1522 1630 1739 1647 1445 1322 1334 1359 1582 2133 2387 2286 2191 2187 2189 2103 2112 2191 2426 2501 2322 1938 1634 1431 1304 1400 1403 1598 1830 1801 1804 1914 2001 2033 1816 1725 1739 1683 1964 1694 1383 1935
1822 1998 1703 1649 1711 1675 1539 1478 1542 1628 2043 2336 2418 2328 2263 2237 2197 2250 2370 2516 2606 2355 1688 1553 1519 1368 1323 1423 1506 1679 1623 1659 1760 1896 2089 1833 1798 1654 1757 1822 1403 1496 1925
1727 1931 1980 1674 1684 1809 1797 1793 1869 1929 1946 2047 2224 2306 2347 2397 2405 2392 2367 2373 2490 2415 1716 1615 1642 1418 1355 1472 1446 1564 1519 1535 1689 1950 1969 1393 1305 1677 1637 1757 1646 1684 1744
1637 1760 1971 1680 1830 1765 1713 1726 1907 2031 1878 1898 2042 2212 2375 2449 2432 2363 2256 2108 2218 2210 1666 1684 1730 1542 1514 1406 1394 1431 1420 1403 1464 1552 1532 1467 1271 1554 1464 1589 1861 1728 1451
1256 1152 1290 1349 1478 1899 1847 1739 1882 1905 1802 1816 1936 2141 2235 2393 2430 2337 2075 2000 2255 2299 1849 1853 1929 1890 1418 1226 1280 1292 1245 969 945 903 1282 1627 1587 1395 1473 1841 1711 1278 1517
1109 1193 1295 1360 1406 1446 1873 2052 1895 1852 1654 1620 1865 2179 2309 2335 2405 2212 1926 1995 2349 2480 2375 2452 2281 1629 1126 1053 1167 1199 1042 792 606 1063 1156 1212 1524 1455 1490 1636 1352 1272 1265
1539 1448 1367 1405 1350 1233 1162 1393 1656 1863 1650 1611 1835 2131 2290 2382 2473 2152 1811 1903 2228 2507 2528 2408 2077 1291 938 967 1055 1076 1064 832 899 1049 1087 1341 1516 1892 1617 1579 1431 1244 1221
1586 1390 1380 1525 1510 1412 1373 1127 1232 1513 1623 1569 1650 1887 1979 2214 2287 2070 1827 1818 2024 2205 2193 1892 1497 1145 890 872 895 884 917 941 966 1240 659 1072 1352 1789 1572 1280 1313 1148 1051
683 1043 891 567 538 620 1159 1268 1196 923 1169 1335 1387 1463 1655 1862 1930 1898 1839 1837 1870 2031 2020 1516 1128 936 808 774 780 721 769 855 1413 1451 744 672 1274 1731 1606 1469 1210 1121 961
0 0 0 0 133 663 897 581 867 839 755 925 1116 1271 1233 1429 1722 1673 1702 1710 1816 1808 1899 1442 957 790 711 616 574 591 663 704 1316 1453 1349 1034 1077 1743 1605 1519 1277 1106 1006
0 0 0 0 0 0 0 0 367 661 613 747 593 653 940 1215 1608 1612 1754 1610 1676 1707 1750 1602 1038 683 608 538 451 391 437 1021 1225 1419 1533 852 1067 1621 1647 1759 1349 1094 994
0 0 0 0 0 0 0 0 0 0 13 282 465 516 372 776 1155 1259 1304 1302 1422 1522 1601 1619 1286 756 561 1003 865 336 769 890 1201 1397 1417 823 1059 1635 1583 1700 1369 1095 1054
0 0 0 0 0 0 0 0 0 0 0 0 0 9 372 430 1154 1130 1380 1591 1870 1448 2001 1665 1695 1441 1116 1070 924 825 799 959 1156 1257 1075 572 923 1648 1649 1656 1289 1159 1124
0 0 0 0 0 0 0 0 0 0 0 0 0 0 0 205 481 743 1085 1231 1286 1425 1511 1985 1438 1595 1431 1144 1022 895 829 794 813 1090 1199 515 705 1587 1896 1738 1488 1136 1103
0 0 0 0 0 0 0 0 0 0 0 0 0 0 0 0 70 232 420 904 1159 1136 1278 1798 1723 1187 1385 1172 1029 826 705 808 736 743 1152 590 509 922 1861 1989 1518 1230 1002
0 0 0 0 0 0 0 0 0 0 0 0 0 0 0 0 0 0 131 298 708 1211 923 1135 1590 1323 1026 1168 1072 876 694 598 573 570 863 1036 446 449 959 1551 1779 1439 995
0 0 0 0 0 0 0 0 0 0 0 0 0 0 0 0 0 0 0 16 127 569 983 905 1139 1149 831 743 1047 899 692 584 464 484 593 890 602 384 470 713 1153 1439 1348
0 0 0 0 0 0 0 0 0 0 0 0 0 0 0 0 0 0 0 0 7 177 236 864 765 891 1056 782 573 941 658 514 483 435 441 560 800 826 368 384 547 872 981
0 0 0 0 0 0 0 0 0 0 0 0 0 0 0 0 0 0 0 4 14 0 123 331 830 479 762 857 853 874 775 494 489 414 387 502 815 807 922 362 322 534 547
0 0 0 0 0 0 0 0 0 0 0 0 0 0 0 0 0 0 0 0 0 4 5 5 167 641 467 478 548 554 783 588 423 539 693 683 775 861 917 907 670 497 435
0 0 0 0 0 0 0 0 0 0 0 0 0 0 0 0 0 0 0 0 0 1 15 4 11 212 472 416 259 473 389 618 475 373 579 924 870 782 868 980 1016 483 293
0 0 0 0 0 0 0 0 0 0 0 0 0 0 0 0 0 0 0 0 0 0 5 28 20 9 93 167 229 220 301 353 240 439 345 637 978 873 683 821 902 684 699
0 0 0 0 0 0 0 0 0 0 0 0 0 0 0 0 0 0 0 0 0 0 0 0 22 25 23 48 230 207 291 363 544 458 522 473 744 901 799 721 779 774 773
0 0 0 0 0 0 0 0 0 0 0 0 0 0 0 0 0 0 0 0 0 0 0 0 12 17 153 323 349 400 195 268 311 493 287 591 766 754 905 738 642 761 752
0 0 0 0 0 0 0 0 0 0 0 0 0 0 0 0 0 0 0 0 0 0 0 0 21 20 153 560 104 39 1 155 130 292 322 431 476 622 851 810 586 707 692
0 0 0 0 0 0 0 0 0 0 0 0 0 0 0 0 0 0 0 0 0 0 3 1 36 38 16 556 466 34 38 219 180 164 329 423 571 490 569 588 617 749 752
CIN
-130 -127 -105 -98 -115 -130 -147 -141 -135 -115 -80 -78 -86 -73 -58 -45 -36 -21 -5 -0 -0 -0 -0 -13 -30 -40 -40 -43 -31 -12 -7 -5 -1 -0 -0 -0 -0 -0 -0 -0 -3 -0 -0
-104 -77 -114 -117 -101 -96 -105 -110 -101 -93 -63 -54 -65 -70 -65 -50 -38 -19 -1 -0 -0 -0 -2 -17 -26 -35 -44 -47 -46 -32 -24 -9 -4 -2 -0 -0 -0 -0 -0 -1 -5 -1 -0
-69 -58 -53 -88 -91 -77 -75 -77 -60 -53 -59 -59 -59 -64 -60 -45 -30 -15 -3 -1 -0 -0 -6 -15 -16 -29 -41 -40 -43 -34 -30 -19 -5 -2 -1 -0 -0 -0 -1 -2 -3 -2 -0
-49 -36 -12 -41 -34 -36 -45 -59 -49 -36 -52 -63 -57 -48 -41 -35 -24 -17 -11 -8 -1 -0 -11 -12 -11 -24 -33 -44 -41 -35 -37 -35 -21 -9 -0 -0 -0 -3 -3 -3 -1 -2 -11
-95 -128 -100 -107 -76 -6 -4 -7 -12 -40 -56 -57 -44 -27 -20 -17 -14 -16 -27 -19 -1 -0 -7 -5 -1 -5 -43 -63 -56 -54 -52 -80 -78 -61 -4 -0 -0 -1 -2 -0 -4 -27 -13
-148 -117 -79 -60 -44 -34 -3 -1 -1 -1 -29 -50 -28 -5 -2 -3 -2 -12 -28 -18 -0 -0 -0 -0 -0 -24 -76 -87 -71 -63 -70 -94 -86 -16 -8 -9 -0 -4 -3 -5 -15 -18 -22
-65 -72 -70 -57 -49 -43 -63 -33 -4 -1 -1 -16 -21 -5 -0 -0 -0 -4 -28 -21 -1 -0 -0 -1 -5 -58 -101 -93 -84 -77 -71 -81 -40 -21 -9 -0 -0 -1 -3 -5 -14 -22 -21
-33 -41 -36 -27 -22 -23 -20 -38 -15 -0 -0 -0 -3 -3 -9 -1 -1 -2 -11 -12 -3 -2 -1 -19 -54 -79 -101 -99 -89 -91 -87 -71 -59 -13 -54 -11 -5 -2 -3 -16 -17 -20 -24
-114 -45 -44 -86 -96 -76 -19 -13 -29 -42 -23 -4 -0 -4 -15 -10 -14 -6 -10 -9 -6 -2 -2 -45 -89 -102 -113 -98 -93 -93 -86 -68 -9 -7 -49 -46 -22 -2 -3 -7 -15 -17 -26
-0 -0 -0 -0 -151 -61 -26 -24 -25 -36 -36 -34 -14 -0 -2 -18 -10 -13 -5 -6 -6 -6 -2 -30 -82 -97 -101 -103 -111 -102 -84 -76 -10 -4 -4 -17 -54 -1 -1 -4 -10 -16 -19
-0 -0 -0 -0 -0 -0 -0 -0 -51 -22 -34 -24 -48 -41 -9 -6 -2 -9 -0 -2 -4 -3 -2 -12 -55 -89 -87 -90 -108 -121 -98 -19 -7 -4 -3 -54 -49 -4 -1 -2 -8 -15 -15
-0 -0 -0 -0 -0 -0 -0 -0 -0 -0 -51 -44 -25 -20 -46 -15 -2 -0 -1 -26 -7 -11 -1 -1 -26 -59 -67 -17 -33 -114 -48 -34 -14 -5 -9 -55 -49 -2 -1 -2 -8 -12 -12
-0 -0 -0 -0 -0 -0 -0 -0 -0 -0 -0 -0 -0 -128 -4 -19 -2 -0 -0 -0 -0 -1 -0 -0 -0 -2 -18 -19 -30 -40 -52 -31 -23 -13 -25 -63 -58 -1 -0 -2 -3 -5 -7
-0 -0 -0 -0 -0 -0 -0 -0 -0 -0 -0 -0 -0 -0 -0 -35 -0 -12 -0 -0 -0 -0 -0 -0 -0 -1 -14 -21 -24 -38 -48 -42 -42 -29 -22 -72 -60 -4 -0 -2 -2 -0 -1
-0 -0 -0 -0 -0 -0 -0 -0 -0 -0 -0 -0 -0 -0 -0 -0 -39 -26 -19 -2 -0 -0 -0 -0 -0 -7 -9 -22 -25 -32 -55 -51 -56 -50 -18 -62 -70 -52 -1 -0 -2 -0 -0
-0 -0 -0 -0 -0 -0 -0 -0 -0 -0 -0 -0 -0 -0 -0 -0 -0 -0 -42 -29 -3 -0 -1 -0 -0 -3 -25 -10 -20 -34 -47 -65 -64 -66 -31 -18 -61 -64 -34 -7 -1 -1 -0
-0 -0 -0 -0 -0 -0 -0 -0 -0 -0 -0 -0 -0 -0 -0 -0 -0 -0 -0 -33 -32 -5 -0 -1 -0 -0 -16 -24 -9 -25 -38 -53 -72 -66 -47 -17 -37 -62 -62 -46 -14 -6 -1
-0 -0 -0 -0 -0 -0 -0 -0 -0 -0 -0 -0 -0 -0 -0 -0 -0 -0 -0 -0 -0 -18 -13 -0 -0 -0 -0 -16 -27 -12 -35 -39 -57 -67 -51 -42 -15 -17 -62 -68 -42 -38 -22
-0 -0 -0 -0 -0 -0 -0 -0 -0 -0 -0 -0 -0 -0 -0 -0 -0 -0 -0 -0 -0 -0 -8 -12 -0 -9 -1 -8 -9 -4 -22 -42 -41 -52 -61 -50 -29 -22 -13 -55 -70 -59 -49
-0 -0 -0 -0 -0 -0 -0 -0 -0 -0 -0 -0 -0 -0 -0 -0 -0 -0 -0 -0 -0 -0 -0 -19 -37 -1 -3 -1 -32 -10 -3 -32 -30 -18 -30 -36 -27 -32 -23 -28 -33 -50 -49
-0 -0 -0 -0 -0 -0 -0 -0 -0 -0 -0 -0 -0 -0 -0 -0 -0 -0 -0 -0 -0 -0 -0 -0 -132 -0 -0 -0 -3 -0 -3 -9 -34 -19 -13 -12 -15 -31 -21 -24 -26 -61 -69
-0 -0 -0 -0 -0 -0 -0 -0 -0 -0 -0 -0 -0 -0 -0 -0 -0 -0 -0 -0 -0 -0 -0 -0 -0 -7 -7 -1 -0 -0 -0 -0 -13 -25 -10 -7 -5 -11 -25 -26 -23 -45 -32
-0 -0 -0 -0 -0 -0 -0 -0 -0 -0 -0 -0 -0 -0 -0 -0 -0 -0 -0 -0 -0 -0 -0 -0 -0 -0 -0 -54 -1 -4 -1 -0 -2 -4 -17 -8 -7 -5 -11 -21 -26 -31 -38
-0 -0 -0 -0 -0 -0 -0 -0 -0 -0 -0 -0 -0 -0 -0 -0 -0 -0 -0 -0 -0 -0 -0 -0 -0 -0 -8 -11 -9 -13 -5 -28 -1 -0 -58 -16 -3 -9 -15 -16 -50 -45 -37
-0 -0 -0 -0 -0 -0 -0 -0 -0 -0 -0 -0 -0 -0 -0 -0 -0 -0 -0 -0 -0 -0 -0 -0 -0 -0 -26 -0 -14 -4 -3 -1 -28 -12 -4 -39 -23 -29 -14 -15 -40 -30 -30
-0 -0 -0 -0 -0 -0 -0 -0 -0 -0 -0 -0 -0 -0 -0 -0 -0 -0 -0 -0 -0 -0 -0 -0 -0 -0 -0 -0 -0 -80 -68 -9 -2 -19 -18 -7 -27 -57 -52 -52 -45 -26 -29
Wind_Speed
19 25 28 31 30 28 28 26 26 27 25 27 32 33 32 29 26 23 21 20 24 25 23 19 18 18 18 19 19 22 19 17 16 15 16 18 18 25 25 20 18 22 26
27 27 27 31 31 31 31 31 30 29 29 28 32 33 34 32 27 23 20 19 20 24 25 20 19 19 18 18 19 21 21 20 18 16 16 17 18 23 23 17 14 24 25
31 29 30 31 34 35 34 35 35 33 32 30 30 33 34 34 32 26 24 23 22 24 25 22 20 20 21 19 20 20 20 20 19 16 13 15 18 19 22 18 18 24 26
31 30 32 31 29 30 32 33 32 34 31 28 29 31 31 31 31 31 26 23 21 23 22 22 21 21 22 22 21 21 20 19 18 17 14 14 16 17 21 21 22 25 26
38 39 37 36 30 29 30 32 31 34 31 28 26 29 29 28 28 28 27 23 22 21 21 21 21 21 22 22 21 21 20 19 17 16 13 14 14 19 22 23 22 23 23
46 43 43 44 45 40 36 34 32 31 29 29 28 27 28 28 26 26 24 23 20 20 20 21 22 23 22 21 20 21 20 18 14 13 13 12 12 16 23 20 20 19 18
47 44 43 49 49 51 47 41 35 32 30 28 28 26 27 28 27 25 24 20 20 19 19 20 21 21 22 21 20 20 18 19 14 13 12 11 11 15 19 22 22 20 19
46 44 43 48 48 47 46 45 43 39 35 27 24 25 26 25 27 26 24 22 19 18 19 18 19 20 20 21 20 19 17 16 14 13 11 10 13 13 14 18 19 21 22
38 38 38 40 41 43 44 42 42 41 38 35 26 22 22 22 23 25 26 25 23 21 19 18 17 19 20 21 20 19 17 15 12 13 11 11 15 12 15 17 19 20 21
nan nan nan nan 36 35 34 37 39 39 40 36 32 30 22 20 23 24 23 26 27 24 21 22 20 19 20 21 20 19 19 15 10 10 11 13 15 12 15 19 21 19 19
nan nan nan nan nan nan nan nan 35 36 36 34 34 32 30 28 23 22 23 26 25 27 25 23 23 20 20 21 19 21 21 15 13 13 14 17 14 12 14 17 19 18 18
nan nan nan nan nan nan nan nan nan nan nan 32 32 32 30 28 28 25 24 24 23 23 28 28 26 24 21 21 20 20 20 16 14 13 13 15 13 14 14 18 19 19 18
nan nan nan nan nan nan nan nan nan nan nan nan nan nan 33 33 32 32 32 31 28 25 26 30 30 26 21 21 21 21 19 15 13 13 12 12 12 11 13 20 18 19 20
nan nan nan nan nan nan nan nan nan nan nan nan nan nan nan 37 34 34 35 36 32 33 30 31 33 28 24 23 22 21 20 18 18 17 14 15 14 11 11 15 18 17 19
nan nan nan nan nan nan nan nan nan nan nan nan nan nan nan nan nan 37 35 35 36 38 37 37 35 31 26 26 25 23 22 21 18 18 16 16 13 10 9 11 16 15 15
nan nan nan nan nan nan nan nan nan nan nan nan nan nan nan nan nan nan 37 37 38 37 39 40 40 37 31 29 27 25 23 23 20 19 20 16 14 12 9 10 12 14 14
nan nan nan nan nan nan nan nan nan nan nan nan nan nan nan nan nan nan nan nan 41 42 38 42 41 42 40 34 28 30 29 26 26 20 20 19 17 14 11 11 10 13 13
nan nan nan nan nan nan nan nan nan nan nan nan nan nan nan nan nan nan nan nan nan 46 46 43 44 46 44 43 36 34 35 32 29 27 23 24 20 18 14 12 10 10 10
nan nan nan nan nan nan nan nan nan nan nan nan nan nan nan nan nan nan nan nan nan nan 48 49 46 44 45 45 42 38 37 37 34 34 28 25 25 20 19 19 12 11 11
nan nan nan nan nan nan nan nan nan nan nan nan nan nan nan nan nan nan nan nan nan nan nan nan 48 46 54 41 49 44 40 40 40 37 34 32 27 24 20 18 18 14 14
nan nan nan nan nan nan nan nan nan nan nan nan nan nan nan nan nan nan nan nan nan nan nan nan nan 55 48 45 57 52 48 43 42 38 38 36 29 29 24 22 22 21 19
nan nan nan nan nan nan nan nan nan nan nan nan nan nan nan nan nan nan nan nan nan nan nan nan nan nan nan 48 54 62 56 53 47 41 39 37 30 32 30 23 24 20 17
nan nan nan nan nan nan nan nan nan nan nan nan nan nan nan nan nan nan nan nan nan nan nan nan nan nan nan nan 62 52 59 52 49 50 40 37 35 34 30 27 26 24 19
nan nan nan nan nan nan nan nan nan nan nan nan nan nan nan nan nan nan nan nan nan nan nan nan nan nan 67 62 67 53 54 56 63 57 52 38 37 34 30 30 29 27 24
nan nan nan nan nan nan nan nan nan nan nan nan nan nan nan nan nan nan nan nan nan nan nan nan nan nan 65 71 62 nan nan 54 54 56 53 49 44 38 36 32 33 32 31
nan nan nan nan nan nan nan nan nan nan nan nan nan nan nan nan nan nan nan nan nan nan nan nan nan nan nan 60 63 nan nan 61 41 56 57 51 44 44 40 40 37 34 34
Wind_Direction
264 286 286 290 292 293 291 291 288 292 296 301 305 309 314 319 323 326 326 323 321 316 307 305 301 301 305 311 315 314 313 313 319 321 323 317 316 315 322 319 313 308 317
274 278 279 282 284 287 288 286 286 288 291 296 300 305 309 313 315 314 318 322 327 324 316 308 297 292 297 305 307 313 315 318 321 326 320 316 321 318 322 324 321 306 316
266 273 276 275 282 290 293 292 292 291 292 292 297 301 306 309 309 308 311 315 319 318 320 316 304 296 292 293 298 308 310 318 320 321 318 325 322 325 324 322 320 317 318
261 266 261 264 270 278 283 288 290 292 293 293 293 297 301 303 305 308 309 313 317 317 316 318 313 300 292 290 294 298 306 314 315 318 329 319 323 325 321 324 322 321 321
242 245 242 240 251 261 269 274 279 287 291 294 293 291 296 298 302 304 305 311 317 321 322 318 314 302 296 294 294 295 302 307 313 330 322 320 323 327 326 328 330 328 328
247 247 248 247 244 251 261 272 277 278 285 292 293 295 296 297 299 299 302 306 312 319 321 322 316 309 308 302 295 294 296 300 311 311 315 312 331 331 331 332 332 331 334
256 256 258 249 247 251 252 250 257 275 284 287 292 294 298 298 297 297 295 300 302 310 312 314 313 313 313 309 304 298 295 294 301 302 306 307 321 333 336 332 335 338 336
259 257 256 253 249 251 251 248 246 254 260 276 283 287 289 298 305 301 296 291 292 296 303 305 308 313 312 309 309 300 293 289 294 293 296 298 299 335 347 336 337 342 337
253 251 250 254 249 243 244 245 247 246 251 258 268 277 286 288 292 301 298 295 293 293 299 294 298 303 307 308 312 302 292 284 284 279 282 282 295 334 339 332 337 344 341
nan nan nan nan 241 244 252 244 244 247 248 247 255 258 262 279 286 285 289 297 295 294 295 295 293 297 296 297 304 300 295 284 285 272 275 275 292 325 327 330 331 334 344
nan nan nan nan nan nan nan nan 243 244 246 251 251 251 263 267 274 293 287 278 289 294 292 290 289 287 287 286 295 296 291 283 276 270 273 283 292 307 312 315 316 323 334
nan nan nan nan nan nan nan nan nan nan nan 259 261 259 263 267 271 270 271 284 279 284 289 288 285 280 279 277 280 287 288 285 280 275 277 287 298 300 294 300 303 313 321
nan nan nan nan nan nan nan nan nan nan nan nan nan nan 260 265 273 276 275 271 273 274 270 280 279 273 276 269 273 276 282 280 273 273 280 294 299 309 302 302 303 308 314
nan nan nan nan nan nan nan nan nan nan nan nan nan nan nan 266 263 267 273 275 274 273 271 267 269 271 268 270 272 271 272 274 272 272 276 298 299 303 305 298 306 312 314
nan nan nan nan nan nan nan nan nan nan nan nan nan nan nan nan nan 264 261 270 274 270 269 268 265 265 264 263 266 269 269 273 276 270 267 290 297 306 319 308 309 314 319
nan nan nan nan nan nan nan nan nan nan nan nan nan nan nan nan nan nan 271 267 266 273 271 270 267 261 258 257 260 267 269 269 270 273 266 264 277 288 301 310 305 314 323
nan nan nan nan nan nan nan nan nan nan nan nan nan nan nan nan nan nan nan nan 271 267 274 271 273 262 255 256 255 258 263 266 265 263 265 256 264 281 287 293 309 316 318
nan nan nan nan nan nan nan nan nan nan nan nan nan nan nan nan nan nan nan nan nan 268 261 268 271 273 263 261 251 251 256 259 262 260 256 258 254 255 276 274 277 299 314
nan nan nan nan nan nan nan nan nan nan nan nan nan nan nan nan nan nan nan nan nan nan 263 261 268 271 274 267 254 249 252 258 261 259 256 258 257 254 262 277 272 281 292
nan nan nan nan nan nan nan nan nan nan nan nan nan nan nan nan nan nan nan nan nan nan nan nan 259 266 260 264 260 255 247 248 251 255 259 255 259 260 260 265 269 262 272
nan nan nan nan nan nan nan nan nan nan nan nan nan nan nan nan nan nan nan nan nan nan nan nan nan 257 261 263 254 254 245 244 252 251 251 255 256 264 256 260 257 254 259
nan nan nan nan nan nan nan nan nan nan nan nan nan nan nan nan nan nan nan nan nan nan nan nan nan nan nan 253 254 248 246 244 242 249 250 250 256 255 260 255 262 264 259
nan nan nan nan nan nan nan nan nan nan nan nan nan nan nan nan nan nan nan nan nan nan nan nan nan nan nan nan 255 242 248 242 243 246 250 247 250 249 250 254 258 259 258
nan nan nan nan nan nan nan nan nan nan nan nan nan nan nan nan nan nan nan nan nan nan nan nan nan nan 251 248 252 259 251 237 242 238 239 242 244 248 250 251 255 263 260
nan nan nan nan nan nan nan nan nan nan nan nan nan nan nan nan nan nan nan nan nan nan nan nan nan nan 249 251 245 nan nan 225 223 227 234 238 236 237 242 242 247 252 258
nan nan nan nan nan nan nan nan nan nan nan nan nan nan nan nan nan nan nan nan nan nan nan nan nan nan nan 248 242 nan nan 257 267 245 225 234 237 238 240 240 241 243 251